Starlink 5842

operational
NORAD ID: 56491 Int'l Des: 2023-064 Owner: SPXS Country: US Constellation: starlink
LEOCIRCULAR

Über Starlink 5842

Beschreibung wird geladen...

Live-Position

3D-Globus wird geladen...

Nächste Überflüge

Höhenverlauf

Altitude vs Time

uPlot chart will show altitude changes over time

Zweizeiliger Elementsatz

1 56491U 23064AV 25257.51758980 .00000795 00000-0 74372-4 0 9992
2 56491 69.9999 188.6475 0002581 271.4087 88.6777 14.98332051129845
Epoch: 14. Sept. 2025 • Age: 21 hours

Aktueller Status

Höhe 577.1 km
Geschwindigkeit 7.58 km/s
Subsatellitenpunkt 34.42°N, 150.9°W
Startdatum 10. Mai 2023
Alter 2.3 years
Typ internet

Technische Details

Klassifizierung Payload
Masse 305.00 kg
Trockenmasse 290.00 kg
Gesamtmasse 305.00 kg
Länge 0.20 m
Durchmesser 2.80 m
Spannweite 9.00 m
Form Box + pan
Hersteller SPXS
Bus-Typ Starlink
Phasenstatus In Orbit
Besitzer/Staat SPXS/US

Große Konstellationen

Loading constellations...